This demonstration page uses our WeatherBlox Daily Observations layout. Learn more.

Left ArrowRight Arrow

Hourly Observations for May 31, 2016

Temp ( °F °C ) Dew Point ( °F °C ) Humidity (%) Winds ( mph kmh ) Pressure ( in mb ) Visibility ( mi km ) Precip ( " mm )
12:53 am 00:53 Clear 71 21.7 51 10.6 49 49 NW 5 7 29.84 1011 10 16 0.00 0.00
1:53 am 01:53 Clear 70 21.1 52 11.1 53 53 Calm 29.84 1011 10 16 0.00 0.00
2:53 am 02:53 Clear 67 19.4 53 11.7 61 61 Calm 29.84 1011 10 16 0.00 0.00
3:53 am 03:53 Clear 64 17.8 53 11.7 68 68 Calm 29.83 1010 10 16 0.00 0.00
4:53 am 04:53 Clear 62 16.7 53 11.7 73 73 Calm 29.84 1010 10 16 0.00 0.00
5:53 am 05:53 Sunny 59 15 52 11.1 78 78 Calm 29.84 1010 10 16 0.00 0.00
6:53 am 06:53 Sunny 68 20 49 9.4 51 51 NNW 6 9 29.85 1011 10 16 0.00 0.00
7:53 am 07:53 Sunny 78 25.6 47 8.3 33 33 NNW 7 11 29.85 1011 10 16 0.00 0.00
8:53 am 08:53 Sunny 84 28.9 43 6.1 24 24 N 14 22 29.84 1011 10 16 0.00 0.00
9:53 am 09:53 Sunny 87 30.6 42 5.6 21 21 N 14 22 29.83 1010 10 16 0.00 0.00
10:53 am 10:53 Sunny 91 32.8 44 6.7 20 20 N 12 19 29.82 1010 10 16 0.00 0.00
11:53 am 11:53 Sunny 94 34.4 44 6.7 18 18 N 10 17 29.81 1009 10 16 0.00 0.00
12:53 pm 12:53 Sunny 95 35 44 6.7 17 17 NNW 9 15 29.79 1009 10 16 0.00 0.00
1:53 pm 13:53 Sunny 99 37.2 41 5 14 14 N 9 15 29.77 1008 10 16 0.00 0.00
2:53 pm 14:53 Sunny 100 37.8 35 1.7 10 10 W 8 13 29.75 1008 10 16 0.00 0.00
3:53 pm 15:53 Sunny 100 37.8 34 1.1 10 10 ESE 7 11 29.74 1007 10 16 0.00 0.00
4:53 pm 16:53 Sunny 102 38.9 35 1.7 10 10 N 6 9 29.72 1006 10 16 0.00 0.00
5:53 pm 17:53 Sunny 100 37.8 34 1.1 10 10 SW 8 13 29.71 1006 10 16 0.00 0.00
6:53 pm 18:53 Sunny 100 37.8 38 3.3 12 12 W 5 7 29.70 1006 10 16 0.00 0.00
7:53 pm 19:53 Sunny 90 32.2 51 10.6 26 26 W 3 6 29.71 1006 10 16 0.00 0.00
8:53 pm 20:53 Clear 85 29.4 52 11.1 32 32 Calm 29.72 1006 10 16 0.00 0.00
9:53 pm 21:53 Clear 84 28.9 50 10 31 31 NNW 9 15 29.73 1007 8 13 0.00 0.00
10:53 pm 22:53 Clear 78 25.6 52 11.1 40 40 NW 5 7 29.75 1007 9 14 0.00 0.00
11:53 pm 23:53 Clear 75 23.9 54 12.2 48 48 NW 6 9 29.75 1008 9 14 0.00 0.00

Powered by AerisWeather